Location: Unspecified
(0.0000°N, 0.0000°E)
Time: 01:54:42
(UTC+00:00)

Explorer 11/Cluster Stage 4 - Pass Details

Date: 18 April 2026
Orbit: 463 x 1174 km, 28.8° (Epoch: 15 May)

Event Time Altitude Azimuth Distance (km) Brightness Sun altitude
Exits shadow 05:17:26 - 216° (SW) 2,096 8.3 -10.3°
Reaches altitude 10° 05:18:13 10° 212° (SSW) 1,828 8.1 -10.1°
Maximum altitude 05:22:01 32° 147° (SSE) 1,053 7.5 -9.2°
Drops below altitude 10° 05:26:31 10° 84° (E) 2,178 10.6 -8.1°
Sets 05:29:25 0° 75° (ENE) 3,239 12.3 -7.4°
